CZ-6A DEB, 60780

Orbit data source: Space-Track

CZ-6A DEB, 60780 is space debris in LEO originally from a launch on Tue, 06 Aug 2024 UTC launched from the Taiyaun Space Center, China (TSC). Debris objects in space refer to the collection of defunct objects orbiting the Earth. Examples of debris include non-operational satellites, rocket bodies, and fragments generated from explosions, collisions, or faulty payload assembly.

Loading next visibility...
Identifier
60780, 2024-140FF
Orbit
LEO
Country
Flag of CNCN / PRC
Related business
Manufacturer
SAST
Mission
Spacecraft
Bus & Motor
Unknown
Mass
Unknown
Launch date (UTC)
2024-08-06 (1 year ago)
Launch vehicle
Unknown
Launch site
Taiyaun Space Center, China (TSC)
Object type
Payload
Rocket body
Debris
Shape & HBR
Unknown shape, 0.1 m
Radar Cross Section
Small (<0.1 m²)

Expand to show TLE details & history
Last TLE update: 1 day ago

TLE from 1 day ago
0 CZ-6A DEB
1 60780U 24140FF  25312.41192921  .00000915  00000-0  29224-3 0  9991
2 60780  88.9625 296.2819 0083415  24.5799 335.9340 14.36947510 65070
Epoch: 2025-11-08T09:53Z
TLE epoch observation values (Epoch: 2025-11-08T09:53:10.683Z)
Latitude
-0.00008°
Longitude
100.14547°
Altitude
717.318 km
Speed
7.525 km/s
True Right ascension
19h 45m 07s
True Declination
0° 00' 00"
Sunlit
Object was in daylight at epoch
Visualization orbit readout
Latitude
Unknown
Longitude
Unknown
Altitude
Unknown
Speed
Unknown
Apparent Right ascension
Unknown
Apparent Declination
Unknown
Sunlit
N/A
Visualization observer readout
Local Sidereal Time
08:53:14
Azimuth
Unknown
Elevation
Unknown
Doppler factor
Unknown
Orbital elements
Apogee altitude
825.117 km
Perigee altitude
705.94 km
Semi-major axis
7,143.666 km
Eccentricity
0.00834
Inclination
88.9625°
RAAN
296.2819°
Arg. of periapsis
24.5799°
True anomaly
335.54047°
Mean anomaly
335.934°
Eccentric anomaly
335.73761°
Mean motion
3.59469 °/min
Orbital period
100.15 mins
BSTAR
0.00029224
Loading maneuver chart data...
Computing Atmospheric mass density...
Loading historical data...
Loading historical data...
Loading historical data...
Loading historical data...
Loading historical data...
Loading historical data...
Loading historical data...

Documentation

Showing up to 5 results
|